Back to catalog

FREGAT DEB

LostUNKNOWN
NORAD 45628·DEBRIS·🇷🇺 Russia

Launched Jul 18, 2011 from Baikonur Cosmodrome

Loading…

Next Passes (next 24 hours)

TLE

StaleSource: Space-Track

Epoch: Feb 1, 2021, 07:18 UTC

1 45628U 11037U   21032.30480863  .00244520  00000-0  92197-1 0  9993
2 45628  51.5737 284.4538 2138260  35.6504 334.8047 10.66217397 24764

Track FREGAT DEB in real time with AllMySat

Download on the App Store